Weather History for KDUJ - May, 2013

Change the Weather History Date:

Sunday, May 5, 2013

  Actual Average Record
Temperature  
Mean Temperature 59 °F 53 °F  
Max Temperature 73 °F 64 °F 81 °F (1964)
Min Temperature 45 °F 42 °F 29 °F (2005)
Degree Days  
Heating Degree Days 6 12  
Month to date heating degree days 29 62  
Since 1 July heating degree days 6318 6575  
Cooling Degree Days 0 0  
Month to date cooling degree days 0 0  
Year to date cooling degree days 1 4  
Growing Degree Days 8 (Base 50)    
Moisture  
Dew Point 28 °F    
Average Humidity 41    
Maximum Humidity 71    
Minimum Humidity 11    
Precipitation  
Precipitation 0.00 in 0.13 in 0.57 in (2003)
Month to date precipitation 0.00 0.61  
Sea Level Pressure  
Sea Level Pressure 30.13 in    
Wind  
Wind Speed 10 mph (ESE)    
Max Wind Speed 21 mph    
Max Gust Speed 28 mph    
Visibility 10 miles    
Events      
T = Trace of Precipitation, MM = Missing Value Source: NWS Daily Summary

Daily Weather History Graph

Daily Weather History Graph

Search for Another Location

Airport or City:

Trip Planner

Search our weather history database for the weather conditions in past years. The results will help you decide how hot, cold, wet, or windy it might be!

Date:

Astronomy

May. 05, 2013 Rise Set
Actual Time 6:07 AM EDT 8:17 PM EDT
Civil Twilight 5:37 AM EDT 8:47 PM EDT
Nautical Twilight 5:00 AM EDT 9:25 PM EDT
Astronomical Twilight 4:19 AM EDT 10:06 PM EDT
Moon 3:40 AM EDT (5/5) 4:12 PM EDT (5/5)
Length of Visible Light 15h 10m
Length of Day
14h 09m
Waning Crescent, 18% of the Moon is Illuminated
May 5
Waning Crescent
May 9
New
May 18
First Quarter
May 25
Full
May 31
Last Quarter

Hourly Weather History & Observations

Time (EDT) Temp. Windchill Dew Point Humidity Pressure Visibility Wind Dir Wind Speed Gust Speed Precip Events Conditions
12:56 AM 53.1 °F - 37.9 °F 57% 30.18 in 10.0 mi SE 6.9 mph - N/A   Clear
1:56 AM 53.1 °F - 37.9 °F 57% 30.17 in 10.0 mi East 4.6 mph - N/A   Clear
2:56 AM 51.1 °F - 37.9 °F 61% 30.16 in 10.0 mi East 4.6 mph - N/A   Clear
3:56 AM 48.9 °F - 37.0 °F 64% 30.16 in 10.0 mi ESE 6.9 mph - N/A   Clear
4:56 AM 48.0 °F - 37.0 °F 66% 30.16 in 10.0 mi East 4.6 mph - N/A   Clear
5:56 AM 46.0 °F 43.1 °F 37.0 °F 71% 30.16 in 10.0 mi East 5.8 mph - N/A   Clear
6:56 AM 46.9 °F - 37.9 °F 71% 30.18 in 10.0 mi East 3.5 mph - N/A   Clear
7:56 AM 51.1 °F - 39.9 °F 66% 30.18 in 10.0 mi ESE 8.1 mph - N/A   Clear
8:56 AM 53.1 °F - 39.9 °F 61% 30.18 in 10.0 mi ESE 10.4 mph - N/A   Clear
9:56 AM 57.9 °F - 39.0 °F 49% 30.17 in 10.0 mi East 12.7 mph 19.6 mph N/A   Clear
10:56 AM 64.0 °F - 32.0 °F 30% 30.15 in 10.0 mi East 13.8 mph 25.3 mph N/A   Clear
11:56 AM 66.0 °F - 28.0 °F 24% 30.14 in 10.0 mi ESE 17.3 mph 27.6 mph N/A   Clear
12:56 PM 69.1 °F - 23.0 °F 18% 30.12 in 10.0 mi ESE 18.4 mph 24.2 mph N/A   Clear
1:56 PM 70.0 °F - 21.9 °F 16% 30.11 in 10.0 mi ESE 16.1 mph 24.2 mph N/A   Clear
2:56 PM 71.1 °F - 19.0 °F 14% 30.10 in 10.0 mi ESE 15.0 mph 24.2 mph N/A   Clear
3:56 PM 71.1 °F - 18.0 °F 13% 30.09 in 10.0 mi ESE 13.8 mph 20.7 mph N/A   Clear
4:56 PM 71.1 °F - 14.0 °F 11% 30.08 in 10.0 mi ESE 11.5 mph 20.7 mph N/A   Clear
5:56 PM 70.0 °F - 18.0 °F 14% 30.08 in 10.0 mi ESE 11.5 mph 18.4 mph N/A   Clear
6:56 PM 68.0 °F - 12.9 °F 12% 30.08 in 10.0 mi SE 9.2 mph 18.4 mph N/A   Clear
7:56 PM 64.0 °F - 14.0 °F 14% 30.10 in 10.0 mi SE 9.2 mph - N/A   Clear
8:56 PM 61.0 °F - 19.0 °F 20% 30.12 in 10.0 mi SE 8.1 mph - N/A   Clear
9:56 PM 57.0 °F - 24.1 °F 28% 30.12 in 10.0 mi ESE 8.1 mph - N/A   Clear
10:56 PM 55.0 °F - 28.9 °F 37% 30.11 in 10.0 mi ESE 9.2 mph - N/A   Clear
11:56 PM 52.0 °F - 28.9 °F 41% 30.12 in 10.0 mi ESE 6.9 mph - N/A   Clear